Wind_Speed
37 37 34 29 28 25 26 20 11 11 7 7 9 8 8 12 14 14 12 7 6 7 7 5 6 7 7 7 7 7 9 9 11 12 13 14 13 14 13 11 9 9 9 9 10 12 14 16 18
39 38 37 30 27 26 29 23 16 14 8 7 8 8 12 14 14 11 9 8 8 8 9 8 9 9 9 9 9 10 10 10 11 14 15 15 16 15 13 12 10 10 12 13 14 16 17 20 22
42 41 38 33 31 31 30 25 20 17 11 7 9 9 10 11 11 11 9 8 8 9 9 10 11 13 12 12 11 11 11 12 13 14 15 16 17 17 16 15 14 14 16 17 19 21 23 25 27
42 41 38 34 29 33 30 28 22 20 14 8 8 10 11 9 10 12 13 13 14 14 13 13 16 16 16 16 15 14 13 12 13 14 15 16 16 18 17 17 17 18 20 22 22 22 24 26 28
48 44 44 39 39 35 33 31 26 22 19 12 10 12 10 12 11 13 18 19 18 19 20 20 21 21 17 17 18 18 17 16 16 17 18 18 20 20 19 18 20 21 21 21 21 23 25 26 29
51 51 46 40 39 39 36 34 30 26 25 18 15 15 14 12 13 15 19 22 20 21 22 22 22 21 19 19 19 21 21 21 21 21 21 22 23 23 23 23 24 24 24 23 23 25 28 29 30
47 48 48 44 44 39 39 38 33 29 28 24 20 19 17 17 15 16 20 21 21 20 20 19 18 19 20 23 23 23 23 23 23 22 22 23 22 23 24 26 28 30 31 31 32 34 35 36 37
52 46 45 46 40 40 39 37 36 31 28 28 25 23 22 21 20 19 23 20 19 19 20 21 20 21 22 22 23 24 25 25 25 25 25 24 25 25 26 28 30 33 36 39 41 41 42 43 40
55 49 44 41 32 35 38 37 37 33 31 31 28 28 26 24 22 21 21 22 20 21 21 22 23 24 24 26 26 26 26 26 27 28 29 28 30 31 31 33 35 39 41 42 44 46 48 47 42
58 50 46 34 40 34 34 36 38 38 36 34 32 31 30 29 25 23 24 24 22 22 23 23 24 25 25 27 27 28 29 30 31 31 31 33 34 35 37 39 41 42 44 46 47 47 48 46 42
64 57 47 43 43 32 32 38 38 40 39 38 36 34 33 31 30 27 26 26 26 24 25 26 26 27 28 28 29 30 31 32 34 35 36 38 39 40 42 42 44 46 48 48 48 47 43 45 49
60 58 56 47 48 39 39 33 37 41 42 41 39 38 36 35 33 30 30 31 29 28 29 28 29 31 31 31 32 33 34 36 38 38 40 41 43 44 44 45 46 44 42 44 43 50 51 50 52
62 59 56 55 51 44 38 37 34 37 38 42 41 42 40 38 37 35 34 32 33 32 32 30 29 29 30 31 33 36 37 39 42 42 41 40 39 41 40 41 43 48 54 52 54 55 55 57 61
69 67 60 58 58 56 50 43 34 36 35 40 44 43 43 43 41 38 37 35 37 36 34 32 30 29 30 32 34 35 37 40 39 40 40 38 41 44 46 46 49 51 52 54 56 60 63 65 64
72 69 65 59 56 55 55 55 56 47 40 35 40 39 44 45 44 42 41 40 40 41 37 34 34 36 34 34 35 39 42 42 42 45 43 44 47 51 54 51 52 56 60 59 61 64 65 67 66
74 70 69 68 64 55 54 56 51 49 44 41 37 39 41 40 43 42 45 45 44 44 41 40 39 38 41 42 41 42 44 47 47 47 48 48 52 54 56 58 61 61 61 65 67 69 69 73 71
61 66 66 68 64 63 56 57 56 52 49 43 41 41 39 39 38 42 45 47 48 48 47 45 43 43 47 47 47 45 47 51 51 50 52 55 57 58 61 62 64 64 67 70 73 73 74 73 74
58 64 63 65 68 66 63 63 60 59 58 52 48 45 42 44 40 43 47 47 45 47 45 45 45 44 43 46 49 50 51 53 53 56 58 59 60 61 64 67 65 67 71 74 76 75 72 76 81
64 61 60 62 61 66 66 64 63 60 59 61 61 54 51 46 48 48 47 48 48 50 51 53 53 52 50 49 49 51 52 55 56 60 62 62 65 65 71 68 71 73 76 77 75 75 80 82 80
64 63 59 60 60 62 62 64 67 66 66 65 63 63 63 59 58 59 58 56 56 56 56 54 54 54 54 54 54 56 59 60 60 60 63 68 69 73 72 72 73 76 78 78 79 84 79 80 83
69 69 67 63 62 59 63 61 62 64 64 66 67 66 66 63 63 63 64 65 65 65 64 64 65 66 67 68 66 65 67 66 64 69 71 73 76 75 75 77 76 77 80 83 81 80 83 82 83
76 75 71 68 66 62 61 62 61 61 61 62 64 65 67 66 61 62 65 65 65 65 65 66 66 67 70 67 65 65 65 67 70 73 76 78 79 78 76 77 81 83 82 79 83 82 80 83 88
78 77 77 73 68 66 62 63 59 66 67 66 65 65 66 67 65 63 64 63 64 65 65 67 68 68 66 65 68 69 72 78 79 80 80 77 76 78 79 79 79 80 82 83 81 82 87 93 97
82 78 78 76 73 68 66 65 59 64 67 71 72 70 70 69 70 70 71 70 70 70 70 70 71 72 74 77 79 79 80 81 78 77 77 80 80 78 78 81 81 80 83 86 90 93 97 101 104
85 82 81 80 78 70 70 69 59 63 65 64 68 74 76 74 74 73 74 75 77 77 77 77 79 79 80 81 81 80 80 80 81 81 80 80 80 80 81 81 84 87 90 94 98 100 104 107 110
91 91 89 82 79 77 74 68 63 66 63 64 65 67 67 69 72 74 76 78 79 81 82 80 77 77 77 79 79 80 81 80 79 79 79 78 79 81 84 87 90 93 98 100 104 108 112 115 114
93 91 90 88 83 80 76 71 69 68 68 67 66 67 69 69 70 70 71 70 69 69 69 72 75 78 80 80 79 79 79 80 80 81 82 83 85 88 91 94 98 102 106 109 113 116 118 118 119
91 93 92 88 85 82 78 74 73 73 71 70 70 71 71 72 72 73 71 71 72 72 72 73 75 76 77 80 82 82 83 84 85 86 87 89 91 94 98 101 106 110 114 116 119 120 122 124 124
94 92 91 91 88 83 80 77 77 75 74 74 76 77 77 77 77 77 76 76 76 77 78 78 79 80 82 83 85 86 88 89 90 91 93 96 99 103 107 111 114 116 118 120 124 126 126 127 127
101 96 94 91 86 83 82 80 79 78 77 78 80 81 81 81 82 82 83 81 81 82 83 83 83 85 86 87 89 91 92 94 95 98 100 103 107 110 113 115 118 122 124 124 125 128 129 129 131
Wind_Direction
232 235 235 232 237 250 246 247 238 248 258 283 269 271 251 261 279 297 314 273 284 303 311 297 303 315 319 315 309 315 317 319 327 336 338 340 346 348 344 342 327 310 307 299 300 304 304 304 302
233 233 232 231 237 256 238 240 239 245 236 264 271 275 259 256 276 296 305 278 284 302 302 302 302 307 312 313 316 313 314 314 318 320 327 333 333 335 338 333 319 309 298 292 290 294 297 299 300
232 234 232 233 236 252 240 237 238 241 223 244 261 261 258 260 268 273 290 279 282 290 303 296 316 312 300 302 309 311 308 310 314 316 320 320 321 323 323 320 314 307 302 298 293 291 289 289 292
236 235 237 236 245 253 252 233 234 241 229 223 257 261 267 268 259 268 275 282 279 281 290 287 298 303 299 294 294 297 296 300 303 308 310 310 310 314 314 315 313 309 304 297 293 290 291 293 292
236 239 238 233 242 254 256 235 234 240 231 224 249 258 263 272 264 263 268 284 283 282 287 285 291 294 286 284 287 290 292 297 299 300 303 305 307 305 304 302 303 309 306 298 295 295 297 297 298
239 241 241 237 244 254 256 242 233 237 238 231 239 256 254 264 267 256 259 276 284 283 286 287 288 287 278 279 279 280 285 290 290 292 296 299 303 302 303 305 309 312 314 298 293 297 300 304 306
235 238 242 243 247 248 250 248 232 233 240 237 235 249 255 251 255 254 258 264 275 281 286 291 290 290 286 285 283 284 285 287 289 292 295 299 298 298 298 302 305 306 308 309 309 311 311 314 314
234 235 238 241 249 249 247 241 231 230 236 242 237 241 248 249 251 253 256 261 270 276 283 289 291 293 294 291 288 286 286 288 288 289 291 292 294 295 293 298 302 304 306 309 311 312 314 314 314
234 233 232 234 243 242 243 237 233 232 233 239 241 241 245 249 249 252 256 259 264 271 279 282 285 289 291 293 293 291 290 291 292 293 295 294 295 297 297 298 299 301 305 306 307 310 311 309 309
233 235 230 230 239 237 244 241 237 236 234 236 238 244 245 247 245 250 255 258 263 269 277 280 281 282 284 284 285 286 288 291 292 295 294 294 296 298 298 300 301 302 303 303 305 305 304 305 305
237 235 236 224 235 243 247 243 240 237 240 237 239 240 246 247 248 252 254 261 264 267 271 275 277 281 282 283 284 287 288 289 290 292 294 296 298 299 301 302 302 303 304 304 303 306 302 299 298
237 238 237 237 231 231 246 249 246 239 240 242 242 243 243 248 249 251 253 261 266 267 271 273 279 280 282 287 286 286 288 288 289 291 294 296 299 301 302 302 303 303 305 304 300 303 300 297 297
235 238 240 235 234 240 236 240 244 245 247 247 247 245 244 246 251 252 253 259 265 265 267 269 272 280 286 289 293 292 293 291 289 293 297 302 306 305 305 303 303 303 303 301 302 301 301 299 299
231 236 235 237 238 244 242 243 228 244 252 258 255 250 250 249 250 251 254 254 262 263 263 269 276 276 281 287 290 292 292 295 293 294 295 297 299 301 302 301 301 303 304 304 302 303 302 301 301
232 233 236 238 240 243 244 245 250 248 239 247 261 262 258 254 253 254 254 254 257 264 267 268 274 276 277 281 286 291 290 289 288 289 292 299 300 302 302 302 303 304 302 302 303 305 306 303 302
233 234 235 236 239 241 245 244 245 245 236 239 241 256 258 262 264 265 262 258 258 262 266 270 276 277 277 279 283 286 287 284 287 285 291 295 302 301 300 299 301 299 299 302 304 303 300 301 301
232 232 235 236 239 240 241 246 246 246 242 245 248 251 251 255 261 265 266 266 270 272 272 272 278 280 276 274 278 280 280 285 286 284 289 295 299 299 300 296 297 295 298 301 302 301 301 301 304
232 230 230 233 238 240 244 245 247 247 248 248 250 253 257 258 254 261 263 265 267 270 270 270 269 271 274 275 278 282 283 284 284 287 290 291 295 295 299 296 294 295 297 299 300 300 300 299 303
233 234 234 234 236 241 243 245 248 252 255 254 252 253 257 255 260 262 264 268 270 272 273 275 274 275 278 279 282 284 286 286 284 286 288 291 293 294 296 293 294 296 298 298 297 295 299 302 303
240 240 239 239 240 241 244 248 250 251 252 255 257 258 259 261 266 268 266 266 269 273 275 278 281 280 279 278 280 282 284 286 287 286 288 289 289 292 293 293 294 295 295 294 294 299 301 300 299
240 245 246 244 240 242 241 246 249 251 253 256 258 259 262 261 262 267 268 269 269 271 274 278 279 279 281 283 283 282 282 285 285 287 288 289 290 292 293 294 293 291 292 295 298 298 299 299 301
235 240 245 247 246 246 245 244 247 253 255 256 259 262 264 265 266 267 268 270 272 273 276 278 279 279 280 280 281 281 283 283 284 286 287 288 289 292 292 290 291 291 294 295 297 298 298 299 299
236 237 240 246 250 248 249 247 249 250 253 255 257 259 261 262 264 266 269 271 273 275 276 277 278 280 279 277 277 279 281 286 288 288 289 289 290 289 290 293 294 293 295 296 295 295 297 300 301
238 239 242 244 247 250 251 252 248 254 254 253 254 257 260 262 263 264 267 270 272 273 274 275 276 277 279 281 283 285 286 287 287 287 289 290 290 290 291 292 294 294 294 295 296 299 300 301 302
239 240 242 243 246 246 248 250 251 253 257 260 260 259 258 260 262 264 267 270 272 273 274 276 278 280 281 282 284 285 285 285 287 288 289 289 290 291 292 291 292 293 295 297 298 299 300 301 302
237 240 242 244 244 245 246 251 252 254 255 259 261 263 263 263 265 267 270 272 273 274 276 278 280 280 280 281 283 284 285 285 285 285 287 289 289 290 290 291 292 294 296 296 297 298 300 301 302
235 238 242 244 244 245 246 248 251 253 255 255 257 261 265 268 268 270 272 274 276 277 280 281 280 280 281 281 281 282 284 285 286 287 288 289 289 290 291 292 293 295 295 296 298 299 300 301 301
236 238 241 242 244 247 249 249 251 253 256 258 260 261 264 266 269 271 272 275 276 277 279 280 281 280 280 281 282 283 284 285 286 287 288 289 290 290 291 292 293 294 296 297 299 300 299 300 302
237 239 239 242 244 246 247 250 252 254 256 260 262 264 265 268 271 272 274 275 276 278 280 280 280 281 282 283 284 284 285 286 287 288 289 289 290 291 292 293 295 296 297 298 299 300 300 301 302
238 239 240 243 244 247 249 251 252 254 257 259 262 264 266 270 272 274 274 276 278 279 280 282 283 283 283 284 285 286 287 288 288 289 289 290 291 293 294 295 296 297 299 300 301 302 303 302 301
Height
10839 10843 10846 10849 10855 10859 10860 10862 10862 10865 10866 10867 10868 10869 10870 10871 10872 10873 10874 10874 10875 10875 10874 10874 10874 10875 10874 10874 10873 10873 10872 10872 10871 10871 10870 10868 10867 10866 10865 10863 10862 10861 10859 10858 10857 10855 10854 10852 10850
10833 10836 10839 10846 10851 10853 10856 10858 10860 10862 10863 10864 10866 10867 10868 10869 10870 10871 10872 10872 10873 10874 10874 10874 10874 10874 10874 10873 10872 10872 10871 10871 10870 10869 10868 10867 10866 10864 10863 10862 10861 10859 10857 10856 10854 10852 10850 10848 10847
10828 10830 10835 10842 10845 10849 10852 10854 10856 10859 10859 10861 10864 10865 10866 10867 10868 10868 10870 10871 10871 10871 10872 10872 10873 10873 10873 10872 10871 10871 10870 10869 10869 10868 10867 10866 10864 10862 10861 10859 10858 10856 10854 10852 10851 10849 10847 10845 10843
10822 10827 10831 10837 10843 10843 10847 10849 10852 10855 10857 10857 10860 10861 10863 10864 10865 10866 10868 10868 10869 10869 10869 10870 10870 10870 10870 10870 10870 10869 10868 10867 10866 10865 10865 10864 10862 10860 10858 10856 10855 10853 10851 10849 10846 10844 10842 10840 10838
10816 10820 10824 10832 10835 10838 10842 10845 10848 10851 10853 10854 10857 10858 10860 10861 10863 10863 10864 10866 10866 10866 10866 10867 10867 10867 10866 10866 10866 10866 10866 10865 10864 10863 10862 10860 10859 10857 10856 10854 10852 10849 10847 10844 10843 10840 10838 10836 10834
10810 10814 10818 10827 10832 10832 10837 10841 10843 10847 10849 10850 10852 10854 10856 10858 10859 10860 10861 10862 10863 10863 10863 10863 10862 10862 10862 10862 10863 10863 10862 10862 10861 10859 10858 10856 10854 10852 10851 10849 10847 10844 10842 10840 10838 10836 10834 10832 10829
10804 10807 10814 10821 10824 10826 10832 10836 10838 10842 10844 10845 10848 10850 10852 10854 10855 10856 10857 10858 10858 10858 10859 10859 10859 10859 10859 10859 10859 10859 10859 10858 10856 10855 10854 10852 10850 10848 10846 10844 10842 10839 10836 10834 10832 10830 10827 10825 10822
10797 10801 10809 10815 10819 10822 10826 10829 10832 10837 10840 10839 10843 10846 10847 10849 10850 10852 10852 10854 10855 10855 10855 10856 10856 10855 10855 10855 10855 10854 10854 10853 10852 10850 10849 10847 10845 10843 10840 10839 10836 10833 10830 10827 10824 10822 10819 10815 10813
10791 10795 10804 10813 10813 10813 10820 10823 10825 10831 10835 10835 10838 10840 10842 10844 10846 10847 10848 10849 10851 10851 10851 10851 10851 10851 10851 10851 10850 10849 10849 10848 10846 10844 10843 10841 10840 10838 10836 10834 10831 10828 10825 10822 10818 10815 10811 10808 10805
10783 10788 10800 10804 10803 10809 10814 10818 10820 10824 10829 10830 10833 10834 10837 10839 10840 10842 10844 10844 10845 10846 10847 10846 10846 10846 10846 10845 10844 10844 10843 10842 10840 10838 10837 10835 10834 10832 10830 10828 10824 10821 10818 10815 10812 10809 10805 10800 10796
10775 10784 10791 10795 10795 10804 10808 10810 10814 10818 10822 10823 10826 10829 10831 10833 10835 10836 10839 10840 10841 10840 10841 10841 10840 10840 10839 10839 10839 10838 10837 10836 10834 10832 10830 10829 10827 10825 10822 10820 10817 10813 10810 10807 10804 10801 10797 10793 10789
10767 10775 10781 10789 10792 10796 10799 10804 10810 10812 10814 10817 10819 10822 10825 10827 10829 10831 10833 10835 10836 10836 10835 10835 10835 10834 10833 10833 10833 10832 10831 10830 10828 10826 10824 10822 10820 10818 10815 10813 10810 10806 10803 10799 10795 10792 10789 10784 10780
10760 10765 10772 10781 10785 10788 10794 10795 10802 10805 10808 10810 10813 10815 10817 10820 10822 10825 10827 10829 10829 10829 10829 10829 10827 10827 10827 10827 10827 10825 10824 10823 10819 10818 10817 10814 10812 10810 10808 10805 10803 10800 10795 10791 10787 10782 10779 10774 10768
10749 10756 10764 10771 10778 10782 10788 10789 10795 10797 10801 10803 10806 10809 10810 10813 10815 10819 10821 10823 10822 10821 10823 10823 10822 10821 10820 10820 10819 10819 10817 10815 10813 10811 10809 10806 10804 10803 10801 10798 10794 10791 10787 10782 10777 10773 10767 10762 10756
10741 10749 10756 10764 10770 10774 10778 10782 10787 10793 10792 10798 10798 10802 10804 10806 10808 10812 10814 10814 10815 10813 10815 10816 10816 10815 10814 10812 10812 10811 10809 10807 10804 10803 10801 10799 10795 10792 10789 10786 10783 10780 10775 10771 10766 10759 10753 10747 10742
10734 10741 10749 10754 10760 10766 10770 10772 10779 10782 10786 10790 10794 10793 10796 10799 10802 10805 10805 10807 10806 10806 10809 10809 10808 10808 10807 10806 10804 10802 10799 10796 10796 10794 10792 10789 10786 10782 10778 10774 10771 10767 10762 10757 10752 10747 10740 10734 10728
10727 10734 10739 10744 10751 10755 10760 10764 10770 10772 10781 10782 10785 10788 10789 10792 10797 10796 10797 10798 10798 10798 10799 10800 10799 10799 10798 10797 10796 10793 10788 10786 10786 10785 10782 10779 10775 10771 10767 10763 10758 10753 10747 10743 10737 10732 10725 10717 10713
10716 10720 10727 10733 10739 10745 10750 10755 10759 10763 10769 10774 10775 10779 10782 10786 10790 10787 10786 10790 10791 10787 10788 10789 10789 10789 10789 10788 10786 10782 10779 10778 10775 10773 10771 10768 10764 10759 10755 10750 10745 10739 10733 10726 10720 10715 10711 10701 10696
10704 10712 10720 10727 10731 10735 10741 10747 10750 10755 10759 10763 10767 10770 10773 10778 10780 10779 10778 10780 10781 10777 10777 10779 10780 10780 10779 10778 10774 10771 10768 10768 10766 10763 10758 10755 10751 10747 10742 10736 10732 10725 10719 10713 10705 10699 10695 10686 10680
10695 10702 10713 10717 10722 10727 10732 10737 10742 10746 10748 10752 10757 10759 10762 10769 10768 10766 10767 10769 10770 10767 10766 10766 10768 10769 10767 10766 10764 10760 10757 10755 10755 10752 10748 10743 10738 10733 10727 10722 10717 10711 10704 10699 10692 10685 10680 10671 10662
10686 10691 10698 10707 10712 10718 10724 10729 10733 10736 10739 10740 10743 10746 10749 10756 10759 10755 10753 10754 10756 10757 10758 10757 10756 10756 10755 10753 10751 10749 10746 10743 10741 10737 10734 10730 10725 10719 10713 10708 10702 10697 10691 10685 10679 10672 10665 10656 10647
10676 10682 10689 10695 10699 10708 10715 10725 10725 10725 10729 10731 10732 10732 10734 10742 10745 10744 10741 10741 10741 10745 10745 10743 10742 10741 10741 10739 10736 10735 10733 10730 10727 10723 10718 10713 10708 10704 10698 10693 10687 10682 10675 10669 10663 10655 10647 10640 10632
10665 10671 10677 10682 10690 10697 10706 10711 10718 10715 10717 10718 10721 10720 10721 10728 10734 10730 10729 10729 10729 10731 10729 10729 10728 10727 10727 10725 10723 10721 10718 10716 10712 10707 10702 10697 10693 10687 10681 10675 10669 10663 10658 10652 10645 10638 10631 10623 10613
10655 10662 10666 10671 10678 10688 10694 10697 10712 10704 10702 10704 10706 10709 10711 10717 10720 10717 10716 10716 10717 10718 10718 10716 10716 10715 10713 10711 10709 10706 10702 10699 10693 10689 10686 10681 10675 10669 10664 10659 10652 10646 10639 10633 10626 10619 10611 10603 10593
10644 10650 10653 10659 10667 10682 10681 10683 10700 10695 10692 10694 10695 10696 10699 10704 10704 10706 10705 10705 10704 10705 10704 10704 10702 10701 10698 10695 10692 10689 10686 10681 10677 10673 10668 10662 10658 10654 10647 10640 10634 10628 10621 10614 10606 10598 10590 10581 10572
10627 10630 10637 10645 10656 10664 10668 10679 10686 10683 10686 10683 10682 10681 10685 10690 10692 10694 10693 10693 10693 10692 10690 10689 10688 10685 10682 10679 10675 10672 10668 10665 10660 10655 10651 10647 10641 10635 10629 10623 10616 10608 10600 10593 10586 10577 10568 10558 10548
10614 10621 10626 10634 10642 10649 10659 10668 10671 10671 10671 10673 10672 10670 10671 10675 10677 10680 10680 10680 10679 10678 10677 10676 10673 10671 10667 10662 10659 10656 10653 10648 10644 10640 10635 10630 10624 10617 10610 10602 10594 10586 10578 10570 10563 10553 10542 10532 10522
10602 10607 10613 10622 10630 10639 10648 10655 10658 10659 10659 10660 10661 10662 10661 10661 10662 10664 10666 10666 10665 10664 10663 10662 10659 10655 10651 10648 10644 10641 10636 10631 10627 10623 10617 10611 10604 10596 10589 10580 10571 10563 10555 10546 10537 10527 10516 10507 10496
10585 10592 10600 10606 10616 10626 10635 10641 10643 10645 10648 10648 10646 10645 10646 10648 10649 10650 10650 10651 10651 10650 10649 10646 10642 10639 10635 10632 10628 10623 10618 10614 10610 10603 10597 10590 10583 10575 10567 10558 10549 10539 10531 10523 10512 10500 10488 10479 10467
10569 10579 10587 10595 10608 10615 10622 10629 10631 10633 10634 10632 10631 10629 10632 10635 10633 10633 10632 10634 10634 10632 10629 10626 10623 10620 10617 10614 10609 10605 10601 10596 10590 10584 10577 10569 10560 10552 10543 10534 10524 10515 10505 10494 10483 10470 10458 10448 10433